Time,TemperatureF,DewpointF,PressureIn,WindDirection,WindDirectionDegrees,WindSpeedMPH,WindSpeedGustMPH,Humidity,HourlyPrecipIn,Conditions,Clouds,dailyrainin,SoftwareType,DateUTC
2013-10-18 00:00:00,55.1,51.9,27.02,North,-999,-999.0,-999.0,89,0.00,,,0.08,WSDL version 420,2013-10-18 04:00:00,
2013-10-18 00:05:00,54.8,51.6,27.02,North,-999,-999.0,-999.0,89,0.00,,,0.00,WSDL version 420,2013-10-18 04:05:00,
2013-10-18 00:10:00,54.6,51.4,27.02,North,-999,-999.0,-999.0,89,0.00,,,0.00,WSDL version 420,2013-10-18 04:10:00,
2013-10-18 00:15:00,54.6,51.4,27.02,North,-999,-999.0,-999.0,89,0.00,,,0.00,WSDL version 420,2013-10-18 04:15:00,
2013-10-18 00:20:00,54.5,51.3,27.02,North,-999,-999.0,-999.0,89,0.00,,,0.00,WSDL version 420,2013-10-18 04:20:00,
2013-10-18 00:25:00,54.4,51.2,27.02,North,-999,-999.0,-999.0,89,0.00,,,0.00,WSDL version 420,2013-10-18 04:25:00,
2013-10-18 00:30:00,54.3,51.1,27.02,North,-999,-999.0,-999.0,89,0.00,,,0.00,WSDL version 420,2013-10-18 04:30:00,
2013-10-18 00:35:00,54.3,51.1,27.02,North,-999,-999.0,-999.0,89,0.00,,,0.00,WSDL version 420,2013-10-18 04:35:00,
2013-10-18 00:40:00,54.1,50.6,27.02,North,-999,-999.0,-999.0,88,0.00,,,0.00,WSDL version 420,2013-10-18 04:40:00,
2013-10-18 00:45:00,53.9,50.3,27.02,North,-999,-999.0,-999.0,88,0.00,,,0.00,WSDL version 420,2013-10-18 04:45:00,
2013-10-18 00:50:00,53.7,50.2,27.02,North,-999,-999.0,-999.0,88,0.00,,,0.00,WSDL version 420,2013-10-18 04:50:00,
2013-10-18 00:55:00,53.7,50.2,27.02,North,-999,-999.0,-999.0,89,0.00,,,0.00,WSDL version 420,2013-10-18 04:55:00,
2013-10-18 01:00:00,53.5,50.0,27.02,North,-999,-999.0,-999.0,88,0.00,,,0.00,WSDL version 420,2013-10-18 05:00:00,
2013-10-18 01:05:00,53.5,50.3,27.02,North,-999,-999.0,-999.0,89,0.00,,,0.00,WSDL version 420,2013-10-18 05:05:00,
2013-10-18 01:10:00,53.3,50.2,27.02,North,-999,-999.0,-999.0,89,0.00,,,0.00,WSDL version 420,2013-10-18 05:10:00,
2013-10-18 01:15:00,53.3,49.8,27.02,North,-999,-999.0,-999.0,88,0.00,,,0.00,WSDL version 420,2013-10-18 05:15:00,
2013-10-18 01:20:00,53.3,49.8,27.02,North,-999,-999.0,-999.0,88,0.00,,,0.00,WSDL version 420,2013-10-18 05:20:00,
2013-10-18 01:25:00,53.2,49.6,27.02,North,-999,-999.0,-999.0,88,0.00,,,0.00,WSDL version 420,2013-10-18 05:25:00,
2013-10-18 01:30:00,53.2,49.6,27.02,North,-999,-999.0,-999.0,88,0.00,,,0.00,WSDL version 420,2013-10-18 05:30:00,
2013-10-18 01:35:00,53.0,49.5,27.02,North,-999,-999.0,-999.0,88,0.00,,,0.00,WSDL version 420,2013-10-18 05:35:00,
2013-10-18 01:40:00,53.0,49.5,27.02,North,-999,-999.0,-999.0,88,0.00,,,0.00,WSDL version 420,2013-10-18 05:40:00,
2013-10-18 01:45:00,52.9,49.4,27.02,North,-999,-999.0,-999.0,88,0.00,,,0.00,WSDL version 420,2013-10-18 05:45:00,
2013-10-18 01:50:00,52.8,49.3,27.02,North,-999,-999.0,-999.0,88,0.00,,,0.00,WSDL version 420,2013-10-18 05:50:00,
2013-10-18 01:55:00,52.7,49.1,27.02,North,-999,-999.0,-999.0,88,0.00,,,0.00,WSDL version 420,2013-10-18 05:55:00,
2013-10-18 02:00:00,52.4,48.9,27.02,North,-999,-999.0,-999.0,88,0.00,,,0.00,WSDL version 420,2013-10-18 06:00:00,
2013-10-18 02:05:00,52.4,48.9,27.02,North,-999,-999.0,-999.0,88,0.00,,,0.00,WSDL version 420,2013-10-18 06:05:00,
2013-10-18 02:10:00,52.4,48.9,27.02,North,-999,-999.0,-999.0,88,0.00,,,0.00,WSDL version 420,2013-10-18 06:10:00,
2013-10-18 02:15:00,52.3,48.8,27.02,North,-999,-999.0,-999.0,88,0.00,,,0.00,WSDL version 420,2013-10-18 06:15:00,
2013-10-18 02:20:00,52.2,48.4,27.02,North,-999,-999.0,-999.0,87,0.00,,,0.00,WSDL version 420,2013-10-18 06:20:00,
2013-10-18 02:25:00,52.1,48.2,27.02,North,-999,-999.0,-999.0,87,0.00,,,0.00,WSDL version 420,2013-10-18 06:25:00,
2013-10-18 02:30:00,51.9,48.1,27.02,North,-999,-999.0,-999.0,87,0.00,,,0.00,WSDL version 420,2013-10-18 06:30:00,
2013-10-18 02:35:00,51.8,47.9,27.02,North,-999,-999.0,-999.0,87,0.00,,,0.00,WSDL version 420,2013-10-18 06:35:00,
2013-10-18 02:40:00,51.5,47.7,27.02,North,-999,-999.0,-999.0,87,0.00,,,0.00,WSDL version 420,2013-10-18 06:40:00,
2013-10-18 02:45:00,51.5,47.7,27.02,North,-999,-999.0,-999.0,87,0.00,,,0.00,WSDL version 420,2013-10-18 06:45:00,
2013-10-18 02:50:00,51.5,47.6,27.02,North,-999,-999.0,-999.0,87,0.00,,,0.00,WSDL version 420,2013-10-18 06:50:00,
2013-10-18 02:55:00,51.4,47.5,27.02,North,-999,-999.0,-999.0,87,0.00,,,0.00,WSDL version 420,2013-10-18 06:55:00,
2013-10-18 03:00:00,51.4,47.5,27.02,North,-999,-999.0,-999.0,87,0.00,,,0.00,WSDL version 420,2013-10-18 07:00:00,
2013-10-18 03:05:00,51.3,47.4,27.02,North,-999,-999.0,-999.0,87,0.00,,,0.00,WSDL version 420,2013-10-18 07:05:00,
2013-10-18 03:10:00,51.1,47.3,27.02,North,-999,-999.0,-999.0,87,0.00,,,0.00,WSDL version 420,2013-10-18 07:10:00,
2013-10-18 03:15:00,51.0,47.2,27.02,North,-999,-999.0,-999.0,87,0.00,,,0.00,WSDL version 420,2013-10-18 07:15:00,
2013-10-18 03:20:00,50.9,47.1,27.02,North,-999,-999.0,-999.0,87,0.00,,,0.00,WSDL version 420,2013-10-18 07:20:00,
2013-10-18 03:25:00,50.8,46.9,27.02,North,-999,-999.0,-999.0,87,0.00,,,0.00,WSDL version 420,2013-10-18 07:25:00,
2013-10-18 03:30:00,50.8,47.0,27.02,North,-999,-999.0,-999.0,87,0.00,,,0.00,WSDL version 420,2013-10-18 07:30:00,
2013-10-18 03:35:00,50.7,46.8,27.02,North,-999,-999.0,-999.0,87,0.00,,,0.00,WSDL version 420,2013-10-18 07:35:00,
2013-10-18 03:40:00,50.6,46.8,27.02,North,-999,-999.0,-999.0,87,0.00,,,0.00,WSDL version 420,2013-10-18 07:40:00,
2013-10-18 03:45:00,50.5,46.7,27.02,North,-999,-999.0,-999.0,87,0.00,,,0.00,WSDL version 420,2013-10-18 07:45:00,
2013-10-18 03:50:00,50.6,46.7,27.02,North,-999,-999.0,-999.0,87,0.00,,,0.00,WSDL version 420,2013-10-18 07:50:00,
2013-10-18 03:55:00,50.5,46.4,27.02,North,-999,-999.0,-999.0,86,0.00,,,0.00,WSDL version 420,2013-10-18 07:55:00,
2013-10-18 04:00:00,50.5,46.3,27.02,North,-999,-999.0,-999.0,86,0.00,,,0.00,WSDL version 420,2013-10-18 08:00:00,
2013-10-18 04:05:00,50.4,46.3,27.02,North,-999,-999.0,-999.0,86,0.00,,,0.00,WSDL version 420,2013-10-18 08:05:00,
2013-10-18 04:10:00,50.3,46.1,27.02,North,-999,-999.0,-999.0,86,0.00,,,0.00,WSDL version 420,2013-10-18 08:10:00,
2013-10-18 04:15:00,50.3,46.1,27.02,North,-999,-999.0,-999.0,86,0.00,,,0.00,WSDL version 420,2013-10-18 08:15:00,
2013-10-18 04:20:00,50.3,46.1,26.99,North,-999,-999.0,-999.0,86,0.00,,,0.00,WSDL version 420,2013-10-18 08:20:00,
2013-10-18 04:25:00,50.3,46.1,26.99,North,-999,-999.0,-999.0,86,0.00,,,0.00,WSDL version 420,2013-10-18 08:25:00,
2013-10-18 04:30:00,50.3,46.1,26.99,North,-999,-999.0,-999.0,86,0.00,,,0.00,WSDL version 420,2013-10-18 08:30:00,
2013-10-18 04:35:00,50.3,46.3,27.02,North,-999,-999.0,-999.0,86,0.00,,,0.00,WSDL version 420,2013-10-18 08:35:00,
2013-10-18 04:40:00,50.1,46.0,27.02,North,-999,-999.0,-999.0,86,0.00,,,0.00,WSDL version 420,2013-10-18 08:40:00,
2013-10-18 04:45:00,50.1,45.9,27.02,North,-999,-999.0,-999.0,86,0.00,,,0.00,WSDL version 420,2013-10-18 08:45:00,
2013-10-18 04:50:00,50.1,45.9,26.99,North,-999,-999.0,-999.0,86,0.00,,,0.00,WSDL version 420,2013-10-18 08:50:00,
2013-10-18 04:55:00,50.0,46.1,26.99,North,-999,-999.0,-999.0,87,0.00,,,0.00,WSDL version 420,2013-10-18 08:55:00,
2013-10-18 05:00:00,49.9,45.8,26.99,North,-999,-999.0,-999.0,86,0.00,,,0.00,WSDL version 420,2013-10-18 09:00:00,
2013-10-18 05:05:00,49.9,45.8,27.02,North,-999,-999.0,-999.0,86,0.00,,,0.00,WSDL version 420,2013-10-18 09:05:00,
2013-10-18 05:10:00,49.7,45.6,27.02,North,-999,-999.0,-999.0,86,0.00,,,0.00,WSDL version 420,2013-10-18 09:10:00,
2013-10-18 05:15:00,49.7,45.6,27.02,North,-999,-999.0,-999.0,86,0.00,,,0.00,WSDL version 420,2013-10-18 09:15:00,
2013-10-18 05:20:00,49.7,45.7,27.02,North,-999,-999.0,-999.0,87,0.00,,,0.00,WSDL version 420,2013-10-18 09:20:00,
2013-10-18 05:25:00,49.7,45.9,27.02,North,-999,-999.0,-999.0,87,0.00,,,0.00,WSDL version 420,2013-10-18 09:25:00,
2013-10-18 05:30:00,49.6,45.8,27.02,North,-999,-999.0,-999.0,87,0.00,,,0.00,WSDL version 420,2013-10-18 09:30:00,
2013-10-18 05:35:00,49.4,45.3,27.02,North,-999,-999.0,-999.0,86,0.00,,,0.00,WSDL version 420,2013-10-18 09:35:00,
2013-10-18 05:40:00,49.3,45.3,27.02,North,-999,-999.0,-999.0,87,0.00,,,0.00,WSDL version 420,2013-10-18 09:40:00,
2013-10-18 05:45:00,49.2,45.4,27.02,North,-999,-999.0,-999.0,87,0.00,,,0.00,WSDL version 420,2013-10-18 09:45:00,
2013-10-18 05:50:00,49.1,45.1,27.02,North,-999,-999.0,-999.0,86,0.00,,,0.00,WSDL version 420,2013-10-18 09:50:00,
2013-10-18 05:55:00,48.8,44.7,27.02,North,-999,-999.0,-999.0,86,0.00,,,0.00,WSDL version 420,2013-10-18 09:55:00,
2013-10-18 06:00:00,48.7,44.6,27.02,North,-999,-999.0,-999.0,86,0.00,,,0.00,WSDL version 420,2013-10-18 10:00:00,
2013-10-18 06:05:00,48.7,44.5,27.02,North,-999,-999.0,-999.0,86,0.00,,,0.00,WSDL version 420,2013-10-18 10:05:00,
2013-10-18 06:10:00,48.5,44.8,27.02,North,-999,-999.0,-999.0,87,0.00,,,0.00,WSDL version 420,2013-10-18 10:10:00,
2013-10-18 06:15:00,48.6,44.8,27.02,North,-999,-999.0,-999.0,87,0.00,,,0.00,WSDL version 420,2013-10-18 10:15:00,
2013-10-18 06:20:00,48.6,44.8,27.02,North,-999,-999.0,-999.0,87,0.00,,,0.00,WSDL version 420,2013-10-18 10:20:00,
2013-10-18 06:25:00,48.5,44.7,27.02,North,-999,-999.0,-999.0,87,0.00,,,0.00,WSDL version 420,2013-10-18 10:25:00,
2013-10-18 06:30:00,48.3,44.4,27.02,North,-999,-999.0,-999.0,87,0.00,,,0.00,WSDL version 420,2013-10-18 10:30:00,
2013-10-18 06:35:00,48.5,44.7,27.02,North,-999,-999.0,-999.0,87,0.00,,,0.00,WSDL version 420,2013-10-18 10:35:00,
2013-10-18 06:40:00,48.4,44.6,27.02,North,-999,-999.0,-999.0,87,0.00,,,0.00,WSDL version 420,2013-10-18 10:40:00,
2013-10-18 06:45:00,48.3,44.5,27.02,North,-999,-999.0,-999.0,87,0.00,,,0.00,WSDL version 420,2013-10-18 10:45:00,
2013-10-18 06:50:00,48.3,44.5,27.02,North,-999,-999.0,-999.0,87,0.00,,,0.00,WSDL version 420,2013-10-18 10:50:00,
2013-10-18 06:55:00,48.3,44.4,27.02,North,-999,-999.0,-999.0,86,0.00,,,0.00,WSDL version 420,2013-10-18 10:55:00,
2013-10-18 07:00:00,48.3,44.2,27.02,North,-999,-999.0,-999.0,86,0.00,,,0.00,WSDL version 420,2013-10-18 11:00:00,
2013-10-18 07:05:00,48.3,44.2,27.02,North,-999,-999.0,-999.0,86,0.00,,,0.00,WSDL version 420,2013-10-18 11:05:00,
2013-10-18 07:10:00,48.3,44.2,27.02,North,-999,-999.0,-999.0,86,0.00,,,0.00,WSDL version 420,2013-10-18 11:10:00,
2013-10-18 07:15:00,48.3,44.2,27.02,North,-999,-999.0,-999.0,86,0.00,,,0.00,WSDL version 420,2013-10-18 11:15:00,
2013-10-18 07:20:00,48.2,44.1,27.02,North,-999,-999.0,-999.0,86,0.00,,,0.00,WSDL version 420,2013-10-18 11:20:00,
2013-10-18 07:25:00,48.1,44.0,27.02,North,-999,-999.0,-999.0,86,0.00,,,0.00,WSDL version 420,2013-10-18 11:25:00,
2013-10-18 07:30:00,48.1,43.9,27.02,North,-999,-999.0,-999.0,86,0.00,,,0.00,WSDL version 420,2013-10-18 11:30:00,
2013-10-18 07:35:00,47.9,43.8,27.05,North,-999,-999.0,-999.0,86,0.00,,,0.00,WSDL version 420,2013-10-18 11:35:00,
2013-10-18 07:40:00,47.8,43.7,27.05,North,-999,-999.0,-999.0,86,0.00,,,0.00,WSDL version 420,2013-10-18 11:40:00,
2013-10-18 07:45:00,47.8,43.6,27.05,North,-999,-999.0,-999.0,86,0.00,,,0.00,WSDL version 420,2013-10-18 11:45:00,
2013-10-18 07:50:00,47.6,43.5,27.05,North,-999,-999.0,-999.0,86,0.00,,,0.00,WSDL version 420,2013-10-18 11:50:00,
2013-10-18 07:55:00,47.6,43.5,27.05,North,-999,-999.0,-999.0,86,0.00,,,0.00,WSDL version 420,2013-10-18 11:55:00,
2013-10-18 08:00:00,47.4,43.3,27.05,North,-999,-999.0,-999.0,86,0.00,,,0.00,WSDL version 420,2013-10-18 12:00:00,
2013-10-18 08:05:00,47.4,43.3,27.05,North,-999,-999.0,-999.0,86,0.00,,,0.00,WSDL version 420,2013-10-18 12:05:00,
2013-10-18 08:10:00,47.4,43.1,27.05,North,-999,-999.0,-999.0,84,0.00,,,0.00,WSDL version 420,2013-10-18 12:10:00,
2013-10-18 08:15:00,47.4,43.0,27.05,North,-999,-999.0,-999.0,84,0.00,,,0.00,WSDL version 420,2013-10-18 12:15:00,
2013-10-18 08:20:00,47.2,42.8,27.05,North,-999,-999.0,-999.0,84,0.00,,,0.00,WSDL version 420,2013-10-18 12:20:00,
2013-10-18 08:25:00,47.2,42.8,27.05,North,-999,-999.0,-999.0,84,0.00,,,0.00,WSDL version 420,2013-10-18 12:25:00,
2013-10-18 08:30:00,47.2,42.9,27.05,North,-999,-999.0,-999.0,86,0.00,,,0.00,WSDL version 420,2013-10-18 12:30:00,
2013-10-18 08:35:00,47.2,43.1,27.05,North,-999,-999.0,-999.0,86,0.00,,,0.00,WSDL version 420,2013-10-18 12:35:00,
2013-10-18 08:40:00,47.2,42.8,27.05,North,-999,-999.0,-999.0,84,0.00,,,0.00,WSDL version 420,2013-10-18 12:40:00,
2013-10-18 08:45:00,47.2,42.8,27.05,North,-999,-999.0,-999.0,84,0.00,,,0.00,WSDL version 420,2013-10-18 12:45:00,
2013-10-18 08:50:00,47.3,42.9,27.05,North,-999,-999.0,-999.0,84,0.00,,,0.00,WSDL version 420,2013-10-18 12:50:00,
2013-10-18 08:55:00,47.6,43.1,27.05,North,-999,-999.0,-999.0,84,0.00,,,0.00,WSDL version 420,2013-10-18 12:55:00,
2013-10-18 09:00:00,47.9,43.4,27.05,North,-999,-999.0,-999.0,84,0.00,,,0.00,WSDL version 420,2013-10-18 13:00:00,
2013-10-18 09:05:00,48.2,43.8,27.08,North,-999,-999.0,-999.0,84,0.00,,,0.00,WSDL version 420,2013-10-18 13:05:00,
2013-10-18 09:10:00,48.6,43.8,27.08,North,-999,-999.0,-999.0,83,0.00,,,0.00,WSDL version 420,2013-10-18 13:10:00,
2013-10-18 09:15:00,48.9,44.1,27.08,North,-999,-999.0,-999.0,83,0.00,,,0.00,WSDL version 420,2013-10-18 13:15:00,
2013-10-18 09:20:00,49.2,44.0,27.08,North,-999,-999.0,-999.0,82,0.00,,,0.00,WSDL version 420,2013-10-18 13:20:00,
2013-10-18 09:25:00,49.5,44.3,27.08,North,-999,-999.0,-999.0,82,0.00,,,0.00,WSDL version 420,2013-10-18 13:25:00,
2013-10-18 09:30:00,49.8,44.4,27.08,North,-999,-999.0,-999.0,81,0.00,,,0.00,WSDL version 420,2013-10-18 13:30:00,
2013-10-18 09:35:00,50.1,44.5,27.08,North,-999,-999.0,-999.0,81,0.00,,,0.00,WSDL version 420,2013-10-18 13:35:00,
2013-10-18 09:40:00,50.4,44.6,27.08,North,-999,-999.0,-999.0,80,0.00,,,0.00,WSDL version 420,2013-10-18 13:40:00,
2013-10-18 09:45:00,50.7,44.7,27.08,North,-999,-999.0,-999.0,79,0.00,,,0.00,WSDL version 420,2013-10-18 13:45:00,
2013-10-18 09:50:00,50.9,44.6,27.08,North,-999,-999.0,-999.0,78,0.00,,,0.00,WSDL version 420,2013-10-18 13:50:00,
2013-10-18 09:55:00,51.3,44.6,27.08,North,-999,-999.0,-999.0,77,0.00,,,0.00,WSDL version 420,2013-10-18 13:55:00,
2013-10-18 10:00:00,51.5,44.3,27.08,North,-999,-999.0,-999.0,76,0.00,,,0.00,WSDL version 420,2013-10-18 14:00:00,
2013-10-18 10:05:00,51.8,44.5,27.08,North,-999,-999.0,-999.0,76,0.00,,,0.00,WSDL version 420,2013-10-18 14:05:00,
2013-10-18 10:10:00,52.0,44.4,27.08,North,-999,-999.0,-999.0,75,0.00,,,0.00,WSDL version 420,2013-10-18 14:10:00,
2013-10-18 10:15:00,52.6,44.8,27.08,North,-999,-999.0,-999.0,74,0.00,,,0.00,WSDL version 420,2013-10-18 14:15:00,
2013-10-18 10:20:00,52.8,44.7,27.08,North,-999,-999.0,-999.0,74,0.00,,,0.00,WSDL version 420,2013-10-18 14:20:00,
2013-10-18 10:25:00,53.1,44.7,27.08,North,-999,-999.0,-999.0,72,0.00,,,0.00,WSDL version 420,2013-10-18 14:25:00,
2013-10-18 10:30:00,53.6,44.8,27.08,North,-999,-999.0,-999.0,72,0.00,,,0.00,WSDL version 420,2013-10-18 14:30:00,
2013-10-18 10:35:00,53.9,45.0,27.08,North,-999,-999.0,-999.0,71,0.00,,,0.00,WSDL version 420,2013-10-18 14:35:00,
2013-10-18 10:40:00,54.2,45.1,27.08,North,-999,-999.0,-999.0,71,0.00,,,0.00,WSDL version 420,2013-10-18 14:40:00,
2013-10-18 10:45:00,54.5,44.4,27.08,North,-999,-999.0,-999.0,68,0.00,,,0.00,WSDL version 420,2013-10-18 14:45:00,
2013-10-18 10:50:00,54.7,44.7,27.08,North,-999,-999.0,-999.0,69,0.00,,,0.00,WSDL version 420,2013-10-18 14:50:00,
2013-10-18 10:55:00,55.2,45.1,27.08,North,-999,-999.0,-999.0,68,0.00,,,0.00,WSDL version 420,2013-10-18 14:55:00,
2013-10-18 11:00:00,55.6,44.8,27.08,North,-999,-999.0,-999.0,67,0.00,,,0.00,WSDL version 420,2013-10-18 15:00:00,
2013-10-18 11:05:00,55.7,43.9,27.08,North,-999,-999.0,-999.0,63,0.00,,,0.00,WSDL version 420,2013-10-18 15:05:00,
2013-10-18 11:10:00,55.9,43.6,27.08,North,-999,-999.0,-999.0,64,0.00,,,0.00,WSDL version 420,2013-10-18 15:10:00,
2013-10-18 11:15:00,56.4,44.4,27.08,North,-999,-999.0,-999.0,64,0.00,,,0.00,WSDL version 420,2013-10-18 15:15:00,
2013-10-18 11:20:00,56.4,44.2,27.08,North,-999,-999.0,-999.0,64,0.00,,,0.00,WSDL version 420,2013-10-18 15:20:00,
2013-10-18 11:25:00,56.5,43.9,27.08,North,-999,-999.0,-999.0,62,0.00,,,0.00,WSDL version 420,2013-10-18 15:25:00,
2013-10-18 11:30:00,56.8,44.5,27.08,North,-999,-999.0,-999.0,64,0.00,,,0.00,WSDL version 420,2013-10-18 15:30:00,
2013-10-18 11:35:00,57.2,44.6,27.08,North,-999,-999.0,-999.0,62,0.00,,,0.00,WSDL version 420,2013-10-18 15:35:00,
2013-10-18 11:40:00,57.7,45.3,27.08,North,-999,-999.0,-999.0,64,0.00,,,0.00,WSDL version 420,2013-10-18 15:40:00,
2013-10-18 11:45:00,57.9,45.0,27.08,North,-999,-999.0,-999.0,61,0.00,,,0.00,WSDL version 420,2013-10-18 15:45:00,
2013-10-18 11:50:00,58.0,44.7,27.08,North,-999,-999.0,-999.0,62,0.00,,,0.00,WSDL version 420,2013-10-18 15:50:00,
2013-10-18 11:55:00,58.2,44.7,27.08,North,-999,-999.0,-999.0,60,0.00,,,0.00,WSDL version 420,2013-10-18 15:55:00,
2013-10-18 12:00:00,58.5,45.3,27.08,North,-999,-999.0,-999.0,62,0.00,,,0.00,WSDL version 420,2013-10-18 16:00:00,
2013-10-18 12:05:00,58.8,45.2,27.08,North,-999,-999.0,-999.0,61,0.00,,,0.00,WSDL version 420,2013-10-18 16:05:00,
2013-10-18 12:10:00,59.2,45.8,27.08,North,-999,-999.0,-999.0,61,0.00,,,0.00,WSDL version 420,2013-10-18 16:10:00,
2013-10-18 12:15:00,59.6,46.1,27.08,North,-999,-999.0,-999.0,62,0.00,,,0.00,WSDL version 420,2013-10-18 16:15:00,
2013-10-18 12:20:00,60.0,46.0,27.08,North,-999,-999.0,-999.0,60,0.00,,,0.00,WSDL version 420,2013-10-18 16:20:00,
2013-10-18 12:25:00,60.6,47.1,27.08,North,-999,-999.0,-999.0,60,0.00,,,0.00,WSDL version 420,2013-10-18 16:25:00,
2013-10-18 12:30:00,61.1,47.1,27.08,North,-999,-999.0,-999.0,60,0.00,,,0.00,WSDL version 420,2013-10-18 16:30:00,
2013-10-18 12:35:00,61.5,47.6,27.08,North,-999,-999.0,-999.0,60,0.00,,,0.00,WSDL version 420,2013-10-18 16:35:00,
2013-10-18 12:40:00,61.8,47.7,27.08,North,-999,-999.0,-999.0,60,0.00,,,0.00,WSDL version 420,2013-10-18 16:40:00,
2013-10-18 12:45:00,62.2,47.5,27.08,North,-999,-999.0,-999.0,59,0.00,,,0.00,WSDL version 420,2013-10-18 16:45:00,
2013-10-18 12:50:00,62.6,47.9,27.05,North,-999,-999.0,-999.0,58,0.00,,,0.00,WSDL version 420,2013-10-18 16:50:00,
2013-10-18 12:55:00,62.7,46.7,27.05,North,-999,-999.0,-999.0,56,0.00,,,0.00,WSDL version 420,2013-10-18 16:55:00,
2013-10-18 13:00:00,63.0,47.6,27.05,North,-999,-999.0,-999.0,58,0.00,,,0.00,WSDL version 420,2013-10-18 17:00:00,
2013-10-18 13:05:00,63.7,48.6,27.05,North,-999,-999.0,-999.0,57,0.00,,,0.00,WSDL version 420,2013-10-18 17:05:00,
2013-10-18 13:10:00,63.8,47.3,27.05,North,-999,-999.0,-999.0,55,0.00,,,0.00,WSDL version 420,2013-10-18 17:10:00,
2013-10-18 13:15:00,64.1,47.3,27.05,North,-999,-999.0,-999.0,54,0.00,,,0.00,WSDL version 420,2013-10-18 17:15:00,
2013-10-18 13:20:00,64.0,46.3,27.05,North,-999,-999.0,-999.0,53,0.00,,,0.00,WSDL version 420,2013-10-18 17:20:00,
2013-10-18 13:25:00,64.2,46.4,27.05,North,-999,-999.0,-999.0,53,0.00,,,0.00,WSDL version 420,2013-10-18 17:25:00,
2013-10-18 13:30:00,64.5,46.8,27.05,North,-999,-999.0,-999.0,52,0.00,,,0.00,WSDL version 420,2013-10-18 17:30:00,
2013-10-18 13:35:00,64.8,46.9,27.05,North,-999,-999.0,-999.0,52,0.00,,,0.00,WSDL version 420,2013-10-18 17:35:00,
2013-10-18 13:40:00,64.9,46.2,27.05,North,-999,-999.0,-999.0,51,0.00,,,0.00,WSDL version 420,2013-10-18 17:40:00,
2013-10-18 13:45:00,64.8,45.7,27.05,North,-999,-999.0,-999.0,50,0.00,,,0.00,WSDL version 420,2013-10-18 17:45:00,
2013-10-18 13:50:00,65.3,46.6,27.05,North,-999,-999.0,-999.0,50,0.00,,,0.00,WSDL version 420,2013-10-18 17:50:00,
2013-10-18 13:55:00,65.4,46.1,27.05,North,-999,-999.0,-999.0,50,0.00,,,0.00,WSDL version 420,2013-10-18 17:55:00,
2013-10-18 14:00:00,65.6,46.2,27.05,North,-999,-999.0,-999.0,50,0.00,,,0.00,WSDL version 420,2013-10-18 18:00:00,
2013-10-18 14:05:00,65.9,46.8,27.05,North,-999,-999.0,-999.0,50,0.00,,,0.00,WSDL version 420,2013-10-18 18:05:00,
2013-10-18 14:10:00,66.1,46.9,27.05,North,-999,-999.0,-999.0,50,0.00,,,0.00,WSDL version 420,2013-10-18 18:10:00,
2013-10-18 14:15:00,66.2,46.5,27.05,North,-999,-999.0,-999.0,49,0.00,,,0.00,WSDL version 420,2013-10-18 18:15:00,
2013-10-18 14:20:00,66.5,46.9,27.02,North,-999,-999.0,-999.0,49,0.00,,,0.00,WSDL version 420,2013-10-18 18:20:00,
2013-10-18 14:25:00,66.5,46.1,27.02,North,-999,-999.0,-999.0,48,0.00,,,0.00,WSDL version 420,2013-10-18 18:25:00,
2013-10-18 14:30:00,66.7,46.2,27.02,North,-999,-999.0,-999.0,47,0.00,,,0.00,WSDL version 420,2013-10-18 18:30:00,
2013-10-18 14:35:00,66.7,45.5,27.02,North,-999,-999.0,-999.0,46,0.00,,,0.00,WSDL version 420,2013-10-18 18:35:00,
2013-10-18 14:40:00,66.8,45.6,27.02,North,-999,-999.0,-999.0,47,0.00,,,0.00,WSDL version 420,2013-10-18 18:40:00,
2013-10-18 14:45:00,66.3,45.1,27.02,North,-999,-999.0,-999.0,46,0.00,,,0.00,WSDL version 420,2013-10-18 18:45:00,
2013-10-18 14:50:00,65.7,44.8,27.02,North,-999,-999.0,-999.0,47,0.00,,,0.00,WSDL version 420,2013-10-18 18:50:00,
2013-10-18 14:55:00,66.1,45.6,27.02,North,-999,-999.0,-999.0,47,0.00,,,0.00,WSDL version 420,2013-10-18 18:55:00,
2013-10-18 15:00:00,66.2,45.4,27.02,North,-999,-999.0,-999.0,47,0.00,,,0.00,WSDL version 420,2013-10-18 19:00:00,
2013-10-18 15:05:00,66.6,46.0,27.02,North,-999,-999.0,-999.0,48,0.00,,,0.00,WSDL version 420,2013-10-18 19:05:00,
2013-10-18 15:10:00,67.0,46.6,27.02,North,-999,-999.0,-999.0,48,0.00,,,0.00,WSDL version 420,2013-10-18 19:10:00,
2013-10-18 15:15:00,67.0,46.9,27.02,North,-999,-999.0,-999.0,49,0.00,,,0.00,WSDL version 420,2013-10-18 19:15:00,
2013-10-18 15:20:00,67.2,46.8,27.02,North,-999,-999.0,-999.0,48,0.00,,,0.00,WSDL version 420,2013-10-18 19:20:00,
2013-10-18 15:25:00,67.1,46.8,27.02,North,-999,-999.0,-999.0,48,0.00,,,0.00,WSDL version 420,2013-10-18 19:25:00,
2013-10-18 15:30:00,66.9,45.5,27.02,North,-999,-999.0,-999.0,46,0.00,,,0.00,WSDL version 420,2013-10-18 19:30:00,
2013-10-18 15:35:00,66.6,46.0,27.02,North,-999,-999.0,-999.0,48,0.00,,,0.00,WSDL version 420,2013-10-18 19:35:00,
2013-10-18 15:40:00,65.9,45.5,27.02,North,-999,-999.0,-999.0,48,0.00,,,0.00,WSDL version 420,2013-10-18 19:40:00,
2013-10-18 15:45:00,65.8,45.8,27.02,North,-999,-999.0,-999.0,49,0.00,,,0.00,WSDL version 420,2013-10-18 19:45:00,
2013-10-18 15:50:00,66.3,46.6,27.02,North,-999,-999.0,-999.0,49,0.00,,,0.00,WSDL version 420,2013-10-18 19:50:00,
2013-10-18 15:55:00,66.6,47.4,27.02,North,-999,-999.0,-999.0,50,0.00,,,0.00,WSDL version 420,2013-10-18 19:55:00,
2013-10-18 16:00:00,66.5,47.1,27.02,North,-999,-999.0,-999.0,49,0.00,,,0.00,WSDL version 420,2013-10-18 20:00:00,
2013-10-18 16:05:00,66.1,45.9,27.02,North,-999,-999.0,-999.0,48,0.00,,,0.00,WSDL version 420,2013-10-18 20:05:00,
2013-10-18 16:10:00,66.0,46.5,27.02,North,-999,-999.0,-999.0,50,0.00,,,0.00,WSDL version 420,2013-10-18 20:10:00,
2013-10-18 16:15:00,65.8,46.2,27.02,North,-999,-999.0,-999.0,49,0.00,,,0.00,WSDL version 420,2013-10-18 20:15:00,
2013-10-18 16:20:00,65.4,46.1,27.02,North,-999,-999.0,-999.0,50,0.00,,,0.00,WSDL version 420,2013-10-18 20:20:00,
2013-10-18 16:25:00,65.0,46.3,27.02,North,-999,-999.0,-999.0,51,0.00,,,0.00,WSDL version 420,2013-10-18 20:25:00,
2013-10-18 16:30:00,64.6,46.1,27.02,North,-999,-999.0,-999.0,51,0.00,,,0.00,WSDL version 420,2013-10-18 20:30:00,
2013-10-18 16:35:00,64.5,45.9,27.02,North,-999,-999.0,-999.0,50,0.00,,,0.00,WSDL version 420,2013-10-18 20:35:00,
2013-10-18 16:40:00,64.3,45.9,27.02,North,-999,-999.0,-999.0,52,0.00,,,0.00,WSDL version 420,2013-10-18 20:40:00,
2013-10-18 16:45:00,64.3,46.2,27.02,North,-999,-999.0,-999.0,53,0.00,,,0.00,WSDL version 420,2013-10-18 20:45:00,
2013-10-18 16:50:00,64.1,46.5,27.02,North,-999,-999.0,-999.0,53,0.00,,,0.00,WSDL version 420,2013-10-18 20:50:00,
2013-10-18 16:55:00,64.0,46.4,27.02,North,-999,-999.0,-999.0,53,0.00,,,0.00,WSDL version 420,2013-10-18 20:55:00,
2013-10-18 17:00:00,63.7,46.2,27.02,North,-999,-999.0,-999.0,53,0.00,,,0.00,WSDL version 420,2013-10-18 21:00:00,
2013-10-18 17:05:00,63.5,46.1,27.02,North,-999,-999.0,-999.0,53,0.00,,,0.00,WSDL version 420,2013-10-18 21:05:00,
2013-10-18 17:10:00,63.3,46.4,27.02,North,-999,-999.0,-999.0,54,0.00,,,0.00,WSDL version 420,2013-10-18 21:10:00,
2013-10-18 17:15:00,63.1,45.9,27.02,North,-999,-999.0,-999.0,54,0.00,,,0.00,WSDL version 420,2013-10-18 21:15:00,
2013-10-18 17:20:00,63.1,46.3,27.02,North,-999,-999.0,-999.0,55,0.00,,,0.00,WSDL version 420,2013-10-18 21:20:00,
2013-10-18 17:25:00,62.9,46.5,27.02,North,-999,-999.0,-999.0,55,0.00,,,0.00,WSDL version 420,2013-10-18 21:25:00,
2013-10-18 17:30:00,62.7,46.6,27.02,North,-999,-999.0,-999.0,56,0.00,,,0.00,WSDL version 420,2013-10-18 21:30:00,
2013-10-18 17:35:00,62.3,46.7,27.02,North,-999,-999.0,-999.0,57,0.00,,,0.00,WSDL version 420,2013-10-18 21:35:00,
2013-10-18 17:40:00,62.1,46.8,27.02,North,-999,-999.0,-999.0,58,0.00,,,0.00,WSDL version 420,2013-10-18 21:40:00,
2013-10-18 17:45:00,62.0,47.1,27.02,North,-999,-999.0,-999.0,58,0.00,,,0.00,WSDL version 420,2013-10-18 21:45:00,
2013-10-18 17:50:00,61.9,47.1,27.02,North,-999,-999.0,-999.0,58,0.00,,,0.00,WSDL version 420,2013-10-18 21:50:00,
2013-10-18 17:55:00,61.6,47.2,27.02,North,-999,-999.0,-999.0,60,0.00,,,0.00,WSDL version 420,2013-10-18 21:55:00,
2013-10-18 18:00:00,61.5,47.4,27.02,North,-999,-999.0,-999.0,60,0.00,,,0.00,WSDL version 420,2013-10-18 22:00:00,
2013-10-18 18:05:00,61.3,47.5,27.02,North,-999,-999.0,-999.0,61,0.00,,,0.00,WSDL version 420,2013-10-18 22:05:00,
2013-10-18 18:10:00,61.2,47.6,27.02,North,-999,-999.0,-999.0,61,0.00,,,0.00,WSDL version 420,2013-10-18 22:10:00,
2013-10-18 18:15:00,61.0,47.8,27.02,North,-999,-999.0,-999.0,62,0.00,,,0.00,WSDL version 420,2013-10-18 22:15:00,
2013-10-18 18:20:00,60.8,48.0,27.02,North,-999,-999.0,-999.0,63,0.00,,,0.00,WSDL version 420,2013-10-18 22:20:00,
2013-10-18 18:25:00,60.7,48.5,27.02,North,-999,-999.0,-999.0,64,0.00,,,0.00,WSDL version 420,2013-10-18 22:25:00,
2013-10-18 18:30:00,60.6,48.4,27.02,North,-999,-999.0,-999.0,64,0.00,,,0.00,WSDL version 420,2013-10-18 22:30:00,
2013-10-18 18:35:00,60.4,48.1,27.02,North,-999,-999.0,-999.0,64,0.00,,,0.00,WSDL version 420,2013-10-18 22:35:00,
2013-10-18 18:40:00,60.3,48.3,27.02,North,-999,-999.0,-999.0,64,0.00,,,0.00,WSDL version 420,2013-10-18 22:40:00,
2013-10-18 18:45:00,60.2,48.4,27.02,North,-999,-999.0,-999.0,65,0.00,,,0.00,WSDL version 420,2013-10-18 22:45:00,
2013-10-18 18:50:00,59.9,48.2,27.02,North,-999,-999.0,-999.0,66,0.00,,,0.00,WSDL version 420,2013-10-18 22:50:00,
2013-10-18 18:55:00,59.8,48.5,27.02,North,-999,-999.0,-999.0,66,0.00,,,0.00,WSDL version 420,2013-10-18 22:55:00,
2013-10-18 19:00:00,59.6,48.5,27.02,North,-999,-999.0,-999.0,67,0.00,,,0.00,WSDL version 420,2013-10-18 23:00:00,
2013-10-18 19:05:00,59.5,48.6,27.02,North,-999,-999.0,-999.0,67,0.00,,,0.00,WSDL version 420,2013-10-18 23:05:00,
2013-10-18 19:10:00,-999.0,-99.9,27.02,North,-999,-999.0,-999.0,-999,0.00,,,0.00,WSDL version 420,2013-10-18 23:10:00,
2013-10-18 19:15:00,59.3,48.8,27.02,North,-999,-999.0,-999.0,68,0.00,,,0.00,WSDL version 420,2013-10-18 23:15:00,
2013-10-18 19:20:00,59.2,48.7,27.05,North,-999,-999.0,-999.0,68,0.00,,,0.00,WSDL version 420,2013-10-18 23:20:00,
2013-10-18 19:25:00,59.1,49.0,27.05,North,-999,-999.0,-999.0,69,0.00,,,0.00,WSDL version 420,2013-10-18 23:25:00,
2013-10-18 19:30:00,59.1,49.1,27.05,North,-999,-999.0,-999.0,70,0.00,,,0.00,WSDL version 420,2013-10-18 23:30:00,
2013-10-18 19:35:00,58.9,49.1,27.05,North,-999,-999.0,-999.0,70,0.00,,,0.00,WSDL version 420,2013-10-18 23:35:00,
2013-10-18 19:40:00,58.7,49.4,27.05,North,-999,-999.0,-999.0,71,0.00,,,0.00,WSDL version 420,2013-10-18 23:40:00,
2013-10-18 19:45:00,-999.0,-99.9,27.05,North,-999,-999.0,-999.0,-999,0.00,,,0.00,WSDL version 420,2013-10-18 23:45:00,
2013-10-18 19:50:00,58.6,49.2,27.05,North,-999,-999.0,-999.0,71,0.00,,,0.00,WSDL version 420,2013-10-18 23:50:00,
2013-10-18 19:55:00,58.4,49.4,27.05,North,-999,-999.0,-999.0,72,0.00,,,0.00,WSDL version 420,2013-10-18 23:55:00,
2013-10-18 20:00:00,58.2,49.2,27.05,North,-999,-999.0,-999.0,72,0.00,,,0.00,WSDL version 420,2013-10-19 00:00:00,
2013-10-18 20:05:00,58.2,49.2,27.05,North,-999,-999.0,-999.0,72,0.00,,,0.00,WSDL version 420,2013-10-19 00:05:00,
2013-10-18 20:10:00,58.1,49.5,27.05,North,-999,-999.0,-999.0,73,0.00,,,0.00,WSDL version 420,2013-10-19 00:10:00,
2013-10-18 20:15:00,57.8,49.2,27.05,North,-999,-999.0,-999.0,73,0.00,,,0.00,WSDL version 420,2013-10-19 00:15:00,
2013-10-18 20:20:00,57.7,49.1,27.05,North,-999,-999.0,-999.0,74,0.00,,,0.00,WSDL version 420,2013-10-19 00:20:00,
2013-10-18 20:25:00,57.6,49.4,27.05,North,-999,-999.0,-999.0,74,0.00,,,0.00,WSDL version 420,2013-10-19 00:25:00,
2013-10-18 20:30:00,57.4,49.2,27.05,North,-999,-999.0,-999.0,74,0.00,,,0.00,WSDL version 420,2013-10-19 00:30:00,
2013-10-18 20:35:00,57.2,49.1,27.05,North,-999,-999.0,-999.0,75,0.00,,,0.00,WSDL version 420,2013-10-19 00:35:00,
2013-10-18 20:40:00,56.9,49.1,27.05,North,-999,-999.0,-999.0,75,0.00,,,0.00,WSDL version 420,2013-10-19 00:40:00,
2013-10-18 20:45:00,56.9,49.1,27.05,North,-999,-999.0,-999.0,75,0.00,,,0.00,WSDL version 420,2013-10-19 00:45:00,
2013-10-18 20:50:00,56.9,49.5,27.05,North,-999,-999.0,-999.0,76,0.00,,,0.00,WSDL version 420,2013-10-19 00:50:00,
2013-10-18 20:55:00,56.9,49.4,27.05,North,-999,-999.0,-999.0,76,0.00,,,0.00,WSDL version 420,2013-10-19 00:55:00,
2013-10-18 21:00:00,56.8,49.6,27.05,North,-999,-999.0,-999.0,77,0.00,,,0.00,WSDL version 420,2013-10-19 01:00:00,
2013-10-18 21:05:00,56.6,49.5,27.05,North,-999,-999.0,-999.0,77,0.00,,,0.00,WSDL version 420,2013-10-19 01:05:00,
2013-10-18 21:10:00,56.6,49.5,27.05,North,-999,-999.0,-999.0,77,0.00,,,0.00,WSDL version 420,2013-10-19 01:10:00,
2013-10-18 21:15:00,56.6,49.8,27.05,North,-999,-999.0,-999.0,78,0.00,,,0.00,WSDL version 420,2013-10-19 01:15:00,
2013-10-18 21:20:00,56.4,49.7,27.05,North,-999,-999.0,-999.0,78,0.00,,,0.00,WSDL version 420,2013-10-19 01:20:00,
2013-10-18 21:25:00,56.4,49.7,27.05,North,-999,-999.0,-999.0,78,0.00,,,0.00,WSDL version 420,2013-10-19 01:25:00,
2013-10-18 21:30:00,56.4,49.7,27.05,North,-999,-999.0,-999.0,79,0.00,,,0.00,WSDL version 420,2013-10-19 01:30:00,
2013-10-18 21:35:00,56.4,50.0,27.05,North,-999,-999.0,-999.0,79,0.00,,,0.00,WSDL version 420,2013-10-19 01:35:00,
2013-10-18 21:40:00,56.4,50.0,27.05,North,-999,-999.0,-999.0,79,0.00,,,0.00,WSDL version 420,2013-10-19 01:40:00,
2013-10-18 21:45:00,56.2,49.8,27.05,North,-999,-999.0,-999.0,79,0.00,,,0.00,WSDL version 420,2013-10-19 01:45:00,
2013-10-18 21:50:00,56.0,49.6,27.05,North,-999,-999.0,-999.0,79,0.00,,,0.00,WSDL version 420,2013-10-19 01:50:00,
2013-10-18 21:55:00,56.0,49.5,27.05,North,-999,-999.0,-999.0,79,0.00,,,0.00,WSDL version 420,2013-10-19 01:55:00,
2013-10-18 22:00:00,55.8,49.4,27.05,North,-999,-999.0,-999.0,79,0.00,,,0.00,WSDL version 420,2013-10-19 02:00:00,
2013-10-18 22:05:00,55.6,49.2,27.05,North,-999,-999.0,-999.0,79,0.00,,,0.00,WSDL version 420,2013-10-19 02:05:00,
2013-10-18 22:10:00,55.3,48.9,27.05,North,-999,-999.0,-999.0,79,0.00,,,0.00,WSDL version 420,2013-10-19 02:10:00,
2013-10-18 22:15:00,55.1,48.8,27.05,North,-999,-999.0,-999.0,79,0.00,,,0.00,WSDL version 420,2013-10-19 02:15:00,
2013-10-18 22:20:00,55.0,48.6,27.05,North,-999,-999.0,-999.0,79,0.00,,,0.00,WSDL version 420,2013-10-19 02:20:00,
2013-10-18 22:25:00,54.7,48.7,27.05,North,-999,-999.0,-999.0,80,0.00,,,0.00,WSDL version 420,2013-10-19 02:25:00,
2013-10-18 22:30:00,54.6,48.5,27.05,North,-999,-999.0,-999.0,80,0.00,,,0.00,WSDL version 420,2013-10-19 02:30:00,
2013-10-18 22:35:00,54.4,48.4,27.05,North,-999,-999.0,-999.0,80,0.00,,,0.00,WSDL version 420,2013-10-19 02:35:00,
2013-10-18 22:40:00,54.3,48.3,27.05,North,-999,-999.0,-999.0,80,0.00,,,0.00,WSDL version 420,2013-10-19 02:40:00,
2013-10-18 22:45:00,54.0,48.0,27.05,North,-999,-999.0,-999.0,80,0.00,,,0.00,WSDL version 420,2013-10-19 02:45:00,
2013-10-18 22:50:00,53.8,47.8,27.05,North,-999,-999.0,-999.0,80,0.00,,,0.00,WSDL version 420,2013-10-19 02:50:00,
2013-10-18 22:55:00,53.7,47.7,27.05,North,-999,-999.0,-999.0,80,0.00,,,0.00,WSDL version 420,2013-10-19 02:55:00,
2013-10-18 23:00:00,53.6,47.9,27.05,North,-999,-999.0,-999.0,81,0.00,,,0.00,WSDL version 420,2013-10-19 03:00:00,
2013-10-18 23:05:00,53.4,47.8,27.05,North,-999,-999.0,-999.0,81,0.00,,,0.00,WSDL version 420,2013-10-19 03:05:00,
2013-10-18 23:10:00,53.3,47.7,27.05,North,-999,-999.0,-999.0,81,0.00,,,0.00,WSDL version 420,2013-10-19 03:10:00,
2013-10-18 23:15:00,53.3,47.8,27.05,North,-999,-999.0,-999.0,82,0.00,,,0.00,WSDL version 420,2013-10-19 03:15:00,
2013-10-18 23:20:00,53.2,47.9,27.05,North,-999,-999.0,-999.0,82,0.00,,,0.00,WSDL version 420,2013-10-19 03:20:00,
2013-10-18 23:25:00,53.2,47.9,27.05,North,-999,-999.0,-999.0,82,0.00,,,0.00,WSDL version 420,2013-10-19 03:25:00,
2013-10-18 23:30:00,53.1,47.8,27.05,North,-999,-999.0,-999.0,82,0.00,,,0.00,WSDL version 420,2013-10-19 03:30:00,
2013-10-18 23:35:00,53.0,47.7,27.05,North,-999,-999.0,-999.0,82,0.00,,,0.00,WSDL version 420,2013-10-19 03:35:00,
2013-10-18 23:40:00,53.0,47.7,27.05,North,-999,-999.0,-999.0,82,0.00,,,0.00,WSDL version 420,2013-10-19 03:40:00,
2013-10-18 23:45:00,53.0,48.0,27.05,North,-999,-999.0,-999.0,83,0.00,,,0.00,WSDL version 420,2013-10-19 03:45:00,
2013-10-18 23:50:00,53.0,48.1,27.05,North,-999,-999.0,-999.0,83,0.00,,,0.00,WSDL version 420,2013-10-19 03:50:00,
2013-10-18 23:55:00,52.8,47.9,27.05,North,-999,-999.0,-999.0,83,0.00,,,0.00,WSDL version 420,2013-10-19 03:55:00,